sat.trackr.live / text

‹ back to catalog

STARLINK-5642

NORAD 55430 · 2023-014AR

PAYLOAD ACTIVE UNKNOWN

§ Identity

Operator
Country
US
Launch date
2023-01-31
Launch site
AFWTR
Launch vehicle
Mass (kg)
RCS (m²)

Purposes: comms

External: N2YO · Heavens-Above · Gunter

§ Orbital elements

Epoch: 2026-05-25T01:59:34.565280Z

Period
96.11 min
Inclination
69.9994°
Eccentricity
0.0002932
Mean motion
14.98359866 rev/d
Perigee alt
569.9 km
Apogee alt
574.0 km
Semi-major
6,950.1 km
B*
3.2141e-4
RAAN
271.7573°
Arg perigee
269.3854°
Mean anomaly
90.6969°
Rev number
18,251

§ Raw data

STARLINK-56421 55430U 23014AR  26145.08303895  .00003747  00000+0  32141-3 0  99952 55430  69.9994 271.7573 0002932 269.3854  90.6969 14.98359866182515

JSON: /api/v1/satellites/55430 · /tle

For live sub-satellite position, see the globe view (requires WebGL).

§ Visibility from observer

Set your observer location to see the next 7 days of passes ≥ 10°. The values pass through the URL so the page stays shareable.

No JS? Fill the form by hand. The geolocation button needs JavaScript.